EWG8LE EDDL-EGBB

Flight info

Callsign EWG8LE
Flight time 1h 2m
Altitude 36000
Route SONEB4H SONEB P64 TENLI L602 FLEVO L980 PAM DCT NOGRO M40 SABER L980 LAM L610 HEMEL
Aircraft A320/M-SDE3FGHIRWY/LB1

Departure

Time 2026-05-04 19:49
Airport Düsseldorf Airport (EDDL)

Arrival

Time 2026-05-04 20:51
Airport Birmingham Airport (EGBB)
Time Latitude Longitude Altitude Speed Heading
2026-05-04 18:59 51.28108 6.76546 125 ft 0 kts 96°
2026-05-04 18:59 51.27869 6.76390 123 ft 0 kts 45°
2026-05-04 19:08 51.27869 6.76389 128 ft 0 kts 45°
2026-05-04 19:32 51.27861 6.76377 128 ft 4 kts 44°
2026-05-04 19:33 51.27843 6.76345 127 ft 4 kts 72°
2026-05-04 19:33 51.27841 6.76312 125 ft 4 kts 89°
2026-05-04 19:33 51.27841 6.76269 129 ft 4 kts 89°
2026-05-04 19:33 51.27840 6.76226 129 ft 4 kts 89°
2026-05-04 19:34 51.27839 6.76183 128 ft 4 kts 88°
2026-05-04 19:34 51.27838 6.76139 128 ft 4 kts 84°
2026-05-04 19:34 51.27834 6.76097 127 ft 4 kts 70°
2026-05-04 19:34 51.27821 6.76066 124 ft 4 kts 34°
2026-05-04 19:35 51.27797 6.76047 124 ft 4 kts 11°
2026-05-04 19:35 51.27771 6.76043 127 ft 3 kts
2026-05-04 19:35 51.27766 6.76043 126 ft 0 kts
2026-05-04 19:37 51.27773 6.76043 127 ft 5 kts
2026-05-04 19:37 51.27860 6.76047 127 ft 15 kts
2026-05-04 19:37 51.27952 6.76049 128 ft 10 kts 359°
2026-05-04 19:37 51.28018 6.76047 123 ft 8 kts
2026-05-04 19:38 51.28038 6.76048 126 ft 0 kts
2026-05-04 19:41 51.28042 6.76048 126 ft 3 kts
2026-05-04 19:41 51.28088 6.76030 124 ft 7 kts 325°
2026-05-04 19:41 51.28134 6.76028 127 ft 11 kts 35°
2026-05-04 19:42 51.28210 6.76191 124 ft 25 kts 53°
2026-05-04 19:42 51.28314 6.76417 122 ft 26 kts 53°
2026-05-04 19:42 51.28427 6.76646 123 ft 26 kts 53°
2026-05-04 19:42 51.28536 6.76874 126 ft 25 kts 52°
2026-05-04 19:43 51.28640 6.77094 129 ft 25 kts 53°
2026-05-04 19:43 51.28744 6.77311 129 ft 25 kts 53°
2026-05-04 19:43 51.28848 6.77529 124 ft 25 kts 53°
2026-05-04 19:43 51.28947 6.77737 128 ft 19 kts 53°
2026-05-04 19:44 51.29005 6.77857 128 ft 12 kts 52°
2026-05-04 19:44 51.29047 6.77947 125 ft 7 kts 53°
2026-05-04 19:44 51.29076 6.78007 127 ft 6 kts 53°
2026-05-04 19:44 51.29081 6.78019 128 ft 0 kts 53°
2026-05-04 19:45 51.29082 6.78020 128 ft 1 kts 53°
2026-05-04 19:45 51.29106 6.78072 132 ft 6 kts 53°
2026-05-04 19:46 51.29138 6.78140 134 ft 14 kts 52°
2026-05-04 19:46 51.29200 6.78204 136 ft 9 kts 14°
2026-05-04 19:46 51.29252 6.78197 137 ft 6 kts 332°
2026-05-04 19:46 51.29258 6.78191 137 ft 0 kts 322°
2026-05-04 19:48 51.29261 6.78186 137 ft 5 kts 322°
2026-05-04 19:48 51.29327 6.78106 140 ft 6 kts 323°
2026-05-04 19:48 51.29325 6.78062 139 ft 4 kts 236°
2026-05-04 19:48 51.29275 6.77955 137 ft 36 kts 232°
2026-05-04 19:49 51.28953 6.77282 125 ft 112 kts 233°
2026-05-04 19:49 51.28363 6.76042 223 ft 157 kts 231°
2026-05-04 19:49 51.27725 6.74672 958 ft 153 kts 231°
2026-05-04 19:49 51.27083 6.73284 1601 ft 161 kts 236°
2026-05-04 19:50 51.26839 6.71435 1927 ft 188 kts 283°
2026-05-04 19:50 51.27614 6.69709 2390 ft 200 kts 320°
2026-05-04 19:50 51.28858 6.68683 2983 ft 206 kts 347°
2026-05-04 19:50 51.30329 6.68594 3379 ft 224 kts
2026-05-04 19:51 51.31969 6.68817 3732 ft 248 kts
2026-05-04 19:51 51.33768 6.69032 4210 ft 267 kts
2026-05-04 19:51 51.35652 6.69246 5004 ft 274 kts
2026-05-04 19:51 51.37569 6.69455 5855 ft 278 kts
2026-05-04 19:52 51.39514 6.69634 6699 ft 282 kts
2026-05-04 19:52 51.41491 6.69693 7516 ft 285 kts
2026-05-04 19:52 51.43480 6.69687 8348 ft 288 kts 359°
2026-05-04 19:52 51.45497 6.69659 9187 ft 291 kts 359°
2026-05-04 19:53 51.47538 6.69631 10006 ft 294 kts 360°
2026-05-04 19:53 51.49640 6.69614 10398 ft 313 kts
2026-05-04 19:53 51.51898 6.69610 10632 ft 335 kts
2026-05-04 19:53 51.54270 6.69613 11174 ft 344 kts
2026-05-04 19:54 51.56649 6.69618 11853 ft 349 kts
2026-05-04 19:54 51.59089 6.69621 12570 ft 352 kts
2026-05-04 19:54 51.61559 6.69628 13283 ft 356 kts
2026-05-04 19:54 51.64041 6.69949 13951 ft 360 kts
2026-05-04 19:55 51.66544 6.70370 14558 ft 364 kts
2026-05-04 19:55 51.69079 6.70802 15162 ft 368 kts
2026-05-04 19:55 51.71635 6.71235 15759 ft 372 kts
2026-05-04 19:55 51.74226 6.71670 16348 ft 376 kts
2026-05-04 19:56 51.76840 6.72109 16939 ft 380 kts
2026-05-04 19:56 51.79483 6.72558 17528 ft 384 kts
2026-05-04 19:56 51.82150 6.73008 18110 ft 388 kts
2026-05-04 19:56 51.84845 6.73461 18624 ft 391 kts
2026-05-04 19:57 51.87567 6.73918 19141 ft 395 kts
2026-05-04 19:57 51.90316 6.74379 19658 ft 398 kts
2026-05-04 19:57 51.93085 6.74843 20173 ft 402 kts
2026-05-04 19:57 51.95881 6.75214 20676 ft 405 kts 359°
2026-05-04 19:58 51.98692 6.74773 21182 ft 407 kts 347°
2026-05-04 19:58 52.01392 6.73372 21682 ft 409 kts 334°
2026-05-04 19:58 52.03856 6.71075 22184 ft 410 kts 322°
2026-05-04 19:58 52.05970 6.67973 22665 ft 410 kts 309°
2026-05-04 19:59 52.07689 6.64266 23141 ft 412 kts 303°
2026-05-04 19:59 52.09345 6.60451 23574 ft 415 kts 303°
2026-05-04 19:59 52.11018 6.56598 23979 ft 418 kts 302°
2026-05-04 19:59 52.12675 6.52777 24375 ft 420 kts 302°
2026-05-04 20:00 52.14360 6.48884 24780 ft 422 kts 302°
2026-05-04 20:00 52.16052 6.44965 25181 ft 423 kts 302°
2026-05-04 20:00 52.17747 6.41041 25571 ft 425 kts 302°
2026-05-04 20:00 52.19452 6.37093 25955 ft 426 kts 302°
2026-05-04 20:01 52.21162 6.33127 26341 ft 428 kts 302°
2026-05-04 20:01 52.22875 6.29148 26716 ft 429 kts 301°
2026-05-04 20:01 52.24454 6.25027 27081 ft 427 kts 294°
2026-05-04 20:01 52.25622 6.20590 27446 ft 425 kts 286°
2026-05-04 20:02 52.26606 6.16023 27807 ft 426 kts 286°
2026-05-04 20:02 52.27591 6.11449 28164 ft 428 kts 286°
2026-05-04 20:02 52.28581 6.06865 28509 ft 429 kts 286°
2026-05-04 20:02 52.29578 6.02257 28838 ft 431 kts 286°
2026-05-04 20:03 52.30577 5.97635 29155 ft 432 kts 285°
2026-05-04 20:03 52.31575 5.92995 29454 ft 434 kts 285°
2026-05-04 20:03 52.32573 5.88332 29754 ft 436 kts 285°
2026-05-04 20:03 52.33574 5.83643 30022 ft 438 kts 285°
2026-05-04 20:04 52.34575 5.78933 30248 ft 440 kts 285°
2026-05-04 20:04 52.35580 5.74195 30456 ft 442 kts 285°
2026-05-04 20:04 52.36587 5.69435 30667 ft 444 kts 285°
2026-05-04 20:04 52.37493 5.64617 30862 ft 442 kts 279°
2026-05-04 20:05 52.37951 5.59664 31074 ft 439 kts 270°
2026-05-04 20:05 52.37940 5.54701 31371 ft 434 kts 262°
2026-05-04 20:05 52.37526 5.49820 31662 ft 431 kts 258°
2026-05-04 20:05 52.37047 5.44983 31969 ft 430 kts 258°
2026-05-04 20:06 52.36567 5.40157 32286 ft 429 kts 258°
2026-05-04 20:06 52.36090 5.35353 32597 ft 427 kts 257°
2026-05-04 20:06 52.35611 5.30559 32915 ft 426 kts 257°
2026-05-04 20:06 52.35135 5.25787 33230 ft 425 kts 257°
2026-05-04 20:07 52.34663 5.21034 33542 ft 423 kts 257°
2026-05-04 20:07 52.34190 5.16297 33859 ft 422 kts 257°
2026-05-04 20:07 52.33716 5.11567 34143 ft 420 kts 257°
2026-05-04 20:07 52.33073 5.06929 34376 ft 418 kts 251°
2026-05-04 20:08 52.32236 5.02376 34589 ft 418 kts 251°
2026-05-04 20:08 52.31393 4.97825 34783 ft 419 kts 251°
2026-05-04 20:08 52.30548 4.93276 34971 ft 419 kts 251°
2026-05-04 20:08 52.29700 4.88707 35144 ft 420 kts 251°
2026-05-04 20:09 52.28857 4.84142 35334 ft 421 kts 251°
2026-05-04 20:09 52.28012 4.79561 35508 ft 421 kts 251°
2026-05-04 20:09 52.27167 4.74983 35682 ft 422 kts 251°
2026-05-04 20:09 52.26317 4.70396 35856 ft 422 kts 251°
2026-05-04 20:10 52.25461 4.65811 35981 ft 423 kts 251°
2026-05-04 20:10 52.23744 4.56643 36003 ft 421 kts 251°
2026-05-04 20:11 52.22033 4.47561 36004 ft 422 kts 251°
2026-05-04 20:11 52.20299 4.38430 36010 ft 422 kts 251°
2026-05-04 20:12 52.18558 4.29289 36011 ft 422 kts 251°
2026-05-04 20:12 52.16813 4.20152 36011 ft 422 kts 251°
2026-05-04 20:13 52.15060 4.11012 36016 ft 423 kts 251°
2026-05-04 20:13 52.13300 4.01876 36016 ft 423 kts 251°
2026-05-04 20:14 52.11525 3.92738 36168 ft 425 kts 251°
2026-05-04 20:14 52.10634 3.88157 36341 ft 425 kts 251°
2026-05-04 20:14 52.09738 3.83578 36509 ft 425 kts 251°
2026-05-04 20:14 52.08840 3.78999 36682 ft 425 kts 251°
2026-05-04 20:15 52.07940 3.74415 36836 ft 425 kts 251°
2026-05-04 20:15 52.07045 3.69834 36986 ft 426 kts 251°
2026-05-04 20:15 52.06148 3.65247 37146 ft 426 kts 251°
2026-05-04 20:15 52.05258 3.60719 37291 ft 426 kts 251°
2026-05-04 20:16 52.04350 3.56125 37429 ft 427 kts 251°
2026-05-04 20:16 52.03439 3.51541 37573 ft 427 kts 251°
2026-05-04 20:16 52.02524 3.46953 37712 ft 427 kts 251°
2026-05-04 20:16 52.01607 3.42365 37856 ft 427 kts 250°
2026-05-04 20:17 52.00688 3.37786 38002 ft 427 kts 250°
2026-05-04 20:17 51.98844 3.28596 38027 ft 429 kts 250°
2026-05-04 20:18 51.97003 3.19392 38030 ft 429 kts 253°
2026-05-04 20:18 51.96087 3.09876 38027 ft 432 kts 262°
2026-05-04 20:19 51.95467 3.00196 38033 ft 432 kts 262°
2026-05-04 20:19 51.94828 2.90510 38040 ft 432 kts 262°
2026-05-04 20:20 51.94182 2.80822 38048 ft 433 kts 262°
2026-05-04 20:20 51.93526 2.71120 38051 ft 433 kts 262°
2026-05-04 20:21 51.92863 2.61412 38050 ft 434 kts 262°
2026-05-04 20:21 51.91858 2.46842 38064 ft 434 kts 262°
2026-05-04 20:22 51.91175 2.37118 38057 ft 434 kts 262°
2026-05-04 20:22 51.90579 2.27380 38066 ft 435 kts 265°
2026-05-04 20:23 51.90358 2.17576 38069 ft 436 kts 267°
2026-05-04 20:23 51.90241 2.07758 38058 ft 436 kts 267°
2026-05-04 20:24 51.90043 1.98005 38068 ft 436 kts 266°
2026-05-04 20:24 51.89571 1.88247 38068 ft 434 kts 256°
2026-05-04 20:25 51.87806 1.78943 38058 ft 433 kts 250°
2026-05-04 20:25 51.85926 1.69692 38072 ft 433 kts 251°
2026-05-04 20:26 51.84043 1.60438 38068 ft 433 kts 251°
2026-05-04 20:26 51.82146 1.51198 38065 ft 433 kts 250°
2026-05-04 20:27 51.80231 1.41962 38074 ft 434 kts 250°
2026-05-04 20:27 51.78310 1.32726 38070 ft 434 kts 250°
2026-05-04 20:28 51.76385 1.23485 38069 ft 434 kts 250°
2026-05-04 20:28 51.74455 1.14253 38066 ft 434 kts 250°
2026-05-04 20:29 51.72523 1.05072 38069 ft 435 kts 250°
2026-05-04 20:29 51.71544 1.00460 37853 ft 435 kts 250°
2026-05-04 20:29 51.70628 0.95817 37583 ft 434 kts 255°
2026-05-04 20:30 51.70105 0.91026 37313 ft 435 kts 263°
2026-05-04 20:30 51.69779 0.86177 37046 ft 435 kts 262°
2026-05-04 20:30 51.69559 0.82966 36875 ft 435 kts 262°
2026-05-04 20:30 51.69221 0.78123 36616 ft 435 kts 262°
2026-05-04 20:31 51.68878 0.73282 36358 ft 435 kts 262°
2026-05-04 20:31 51.68530 0.68437 35701 ft 436 kts 262°
2026-05-04 20:31 51.68179 0.63570 34893 ft 438 kts 262°
2026-05-04 20:31 51.67827 0.58685 34072 ft 440 kts 262°
2026-05-04 20:32 51.67469 0.53782 33286 ft 438 kts 261°
2026-05-04 20:32 51.67117 0.48962 32801 ft 430 kts 261°
2026-05-04 20:32 51.66782 0.44203 32235 ft 426 kts 263°
2026-05-04 20:32 51.66887 0.39415 31278 ft 435 kts 279°
2026-05-04 20:33 51.67680 0.34740 30819 ft 429 kts 283°
2026-05-04 20:33 51.68492 0.30143 30269 ft 425 kts 282°
2026-05-04 20:33 51.69275 0.25568 29665 ft 421 kts 282°
2026-05-04 20:33 51.70037 0.21044 29130 ft 416 kts 282°
2026-05-04 20:34 51.70789 0.16574 28599 ft 411 kts 282°
2026-05-04 20:34 51.71536 0.12145 28070 ft 406 kts 282°
2026-05-04 20:34 51.72276 0.07770 27559 ft 402 kts 282°
2026-05-04 20:34 51.73007 0.03432 27051 ft 398 kts 282°
2026-05-04 20:35 51.73730 -0.00872 26568 ft 395 kts 282°
2026-05-04 20:35 51.74442 -0.05128 26081 ft 391 kts 282°
2026-05-04 20:35 51.75150 -0.09352 25616 ft 388 kts 282°
2026-05-04 20:35 51.75852 -0.13542 25162 ft 385 kts 283°
2026-05-04 20:36 51.76548 -0.17700 24708 ft 383 kts 283°
2026-05-04 20:36 51.77228 -0.21783 24263 ft 380 kts 283°
2026-05-04 20:36 51.77912 -0.25892 23816 ft 377 kts 283°
2026-05-04 20:36 51.78647 -0.29958 23298 ft 379 kts 290°
2026-05-04 20:37 51.79985 -0.33628 22841 ft 381 kts 309°
2026-05-04 20:37 51.81859 -0.36674 22574 ft 382 kts 312°
2026-05-04 20:37 51.83568 -0.39938 22305 ft 379 kts 304°
2026-05-04 20:37 51.85047 -0.43453 22046 ft 377 kts 300°
2026-05-04 20:38 51.86422 -0.47068 21333 ft 381 kts 299°
2026-05-04 20:38 51.87818 -0.50805 20289 ft 394 kts 300°
2026-05-04 20:38 51.89274 -0.54575 19819 ft 392 kts 301°
2026-05-04 20:38 51.90753 -0.58243 19412 ft 387 kts 302°
2026-05-04 20:39 51.92252 -0.61836 18956 ft 384 kts 303°
2026-05-04 20:39 51.93760 -0.65380 18495 ft 381 kts 303°
2026-05-04 20:39 51.95268 -0.68899 17994 ft 378 kts 303°
2026-05-04 20:39 51.96758 -0.72390 17480 ft 375 kts 303°
2026-05-04 20:40 51.98230 -0.75860 16998 ft 372 kts 303°
2026-05-04 20:40 51.99673 -0.79283 16225 ft 364 kts 302°
2026-05-04 20:40 52.00830 -0.82853 16005 ft 351 kts 292°
2026-05-04 20:40 52.01749 -0.86464 15827 ft 341 kts 291°
2026-05-04 20:41 52.02632 -0.90010 15498 ft 337 kts 291°
2026-05-04 20:41 52.03502 -0.93524 15118 ft 334 kts 291°
2026-05-04 20:41 52.04361 -0.97017 14738 ft 332 kts 291°
2026-05-04 20:41 52.05208 -1.00486 14357 ft 329 kts 291°
2026-05-04 20:42 52.06054 -1.03934 13981 ft 327 kts 293°
2026-05-04 20:42 52.07025 -1.07265 13582 ft 325 kts 296°
2026-05-04 20:42 52.08026 -1.10547 13165 ft 323 kts 296°
2026-05-04 20:42 52.09019 -1.13790 12605 ft 318 kts 296°
2026-05-04 20:43 52.10003 -1.16989 11841 ft 315 kts 296°
2026-05-04 20:43 52.10990 -1.20147 11099 ft 312 kts 298°
2026-05-04 20:43 52.12199 -1.23056 10396 ft 309 kts 305°
2026-05-04 20:43 52.13448 -1.25764 10134 ft 290 kts 306°
2026-05-04 20:44 52.14755 -1.28208 9582 ft 284 kts 314°
2026-05-04 20:44 52.16169 -1.30429 8946 ft 280 kts 313°
2026-05-04 20:44 52.17493 -1.32736 8302 ft 276 kts 311°
2026-05-04 20:44 52.18769 -1.35049 7673 ft 273 kts 311°
2026-05-04 20:45 52.20009 -1.37319 7073 ft 269 kts 311°
2026-05-04 20:45 52.21281 -1.39503 6661 ft 258 kts 315°
2026-05-04 20:45 52.22523 -1.41449 6472 ft 239 kts 316°
2026-05-04 20:45 52.23709 -1.43291 6017 ft 233 kts 316°
2026-05-04 20:46 52.24868 -1.45110 5493 ft 230 kts 316°
2026-05-04 20:46 52.26006 -1.46929 5031 ft 229 kts 316°
2026-05-04 20:46 52.27130 -1.48754 4711 ft 227 kts 316°
2026-05-04 20:46 52.28238 -1.50572 4363 ft 225 kts 316°
2026-05-04 20:47 52.29337 -1.52383 4077 ft 221 kts 316°
2026-05-04 20:47 52.30392 -1.54131 3952 ft 212 kts 316°
2026-05-04 20:47 52.31352 -1.55888 3817 ft 203 kts 311°
2026-05-04 20:47 52.32177 -1.57714 3698 ft 196 kts 306°
2026-05-04 20:48 52.32927 -1.59514 3578 ft 188 kts 306°
2026-05-04 20:48 52.33647 -1.61270 3374 ft 184 kts 306°
2026-05-04 20:48 52.34521 -1.62811 2950 ft 190 kts 329°
2026-05-04 20:48 52.35643 -1.63988 2600 ft 194 kts 327°
2026-05-04 20:49 52.36762 -1.65235 2305 ft 195 kts 327°
2026-05-04 20:49 52.37881 -1.66479 2055 ft 190 kts 327°
2026-05-04 20:49 52.38943 -1.67657 1783 ft 178 kts 327°
2026-05-04 20:49 52.39921 -1.68741 1551 ft 159 kts 327°
2026-05-04 20:50 52.40799 -1.69713 1328 ft 146 kts 327°
2026-05-04 20:50 52.41626 -1.70630 1115 ft 141 kts 327°
2026-05-04 20:50 52.42434 -1.71527 907 ft 140 kts 327°
2026-05-04 20:50 52.43232 -1.72423 692 ft 139 kts 328°
2026-05-04 20:51 52.44032 -1.73303 506 ft 138 kts 327°
2026-05-04 20:51 52.44827 -1.74184 362 ft 137 kts 327°
2026-05-04 20:51 52.45527 -1.74957 323 ft 98 kts 325°
2026-05-04 20:51 52.45954 -1.75424 316 ft 49 kts 324°
2026-05-04 20:52 52.46133 -1.75629 311 ft 26 kts 328°
2026-05-04 20:52 52.46165 -1.75600 311 ft 10 kts 69°
2026-05-04 20:52 52.46213 -1.75461 306 ft 17 kts 71°
2026-05-04 20:52 52.46118 -1.75287 306 ft 29 kts 146°
2026-05-04 20:53 52.45941 -1.75107 306 ft 30 kts 154°
2026-05-04 20:53 52.45813 -1.74947 311 ft 20 kts 145°
2026-05-04 20:53 52.45699 -1.74816 313 ft 19 kts 146°
2026-05-04 20:53 52.45593 -1.74704 319 ft 17 kts 147°
2026-05-04 20:54 52.45503 -1.74608 323 ft 14 kts 146°
2026-05-04 20:54 52.45446 -1.74478 323 ft 15 kts 115°
2026-05-04 20:54 52.45385 -1.74259 323 ft 24 kts 114°
2026-05-04 20:54 52.45311 -1.74003 323 ft 22 kts 103°
2026-05-04 20:55 52.45374 -1.73826 323 ft 19 kts 51°
2026-05-04 20:55 52.45454 -1.73636 323 ft 21 kts 55°
2026-05-04 20:55 52.45511 -1.73483 323 ft 10 kts 94°
2026-05-04 20:55 52.45489 -1.73459 322 ft 3 kts 147°
2026-05-04 20:56 52.45476 -1.73445 323 ft 2 kts 146°
2026-05-04 20:56 52.45468 -1.73436 323 ft 1 kts 144°
2026-05-04 20:56 52.45460 -1.73427 323 ft 2 kts 146°
2026-05-04 20:56 52.45452 -1.73419 323 ft 1 kts 146°
2026-05-04 20:57 52.45450 -1.73417 323 ft 0 kts 146°